GW0843 Weather Reports


time (UTC)temp
C
wind
direction
speed
KPH
gust
KPH
rain 1hr
cm
rain 24hr
cm
rain mn
cm
humidity
%
barometer
mb
20260504190657 11 273 6.4 9.7 0.00 0.00 0.00 49 1014.1
20260504185657 11 83 1.6 3.2 0.00 0.00 0.00 47 1013.9
20260504184655 11 251 0.0 1.6 0.00 0.00 0.00 50 1014.3
20260504183653 11 209 9.7 11.3 0.00 0.00 0.00 48 1014.7
20260504182648 11 267 6.4 9.7 0.00 0.00 0.00 50 1014.3
20260504181643 13 282 12.9 14.5 0.00 0.00 0.00 46 1014.3
20260504180639 15 236 9.7 11.3 0.00 0.00 0.00 29 1013.4
20260504175634 16 343 11.3 12.9 0.00 0.00 0.00 30 1013.1
20260504174629 15 285 8.0 11.3 0.00 0.00 0.00 29 1013.3
20260504173629 16 247 6.4 9.7 0.00 0.00 0.00 30 1013.5
20260504172628 15 269 8.0 11.3 0.00 0.00 0.00 31 1013.5
20260504171627 16 323 8.0 12.9 0.00 0.00 0.00 29 1013.4
20260504170626 15 22 12.9 17.7 0.00 0.00 0.00 29 1013.6
20260504150606 15 300 16.1 20.9 0.00 0.00 0.00 31 1013.8
20260504140557 15 293 6.4 8.0 0.00 0.00 0.00 29 1013.9
20260504130550 11 254 9.7 11.3 0.00 0.00 0.00 33 1013.6
20260504110531 1 252 0.0 0.0 0.00 0.00 0.00 65 1013.9
20260504100516 0 205 0.0 0.0 0.00 0.00 0.00 67 1014.3
20260504081454 0 272 3.2 3.2 0.00 0.00 0.00 64 1015.2
20260504080452 1 272 0.0 0.0 0.00 0.00 0.00 64 1015.1
20260504050421 4 296 0.0 0.0 0.00 0.00 0.00 50 1016.7
20260504045419 3 300 0.0 0.0 0.00 0.00 0.00 53 1016.5
20260504044419 3 190 1.6 1.6 0.00 0.00 0.00 52 1016.5
20260504043419 5 247 1.6 1.6 0.00 0.00 0.00 48 1016.6
20260504042419 4 261 0.0 0.0 0.00 0.00 0.00 50 1016.6
20260504041418 5 261 1.6 1.6 0.00 0.00 0.00 47 1016.5
20260504040412 5 277 3.2 3.2 0.00 0.00 0.00 48 1016.7
20260504035411 5 299 3.2 3.2 0.00 0.00 0.00 50 1016.8
20260504034411 7 281 1.6 1.6 0.00 0.00 0.00 45 1016.7
20260504033406 7 200 1.6 1.6 0.00 0.00 0.00 41 1016.2
20260504032405 6 200 1.6 1.6 0.00 0.00 0.00 43 1016.4
20260504031405 7 216 1.6 1.6 0.00 0.00 0.00 45 1016.5
20260504030404 7 293 3.2 3.2 0.00 0.00 0.00 43 1016.5
20260504025403 8 294 4.8 4.8 0.00 0.00 0.00 42 1016.2
20260504024402 8 270 3.2 3.2 0.00 0.00 0.00 40 1016.0
20260504023401 10 249 0.0 0.0 0.00 0.00 0.00 38 1016.2
20260504022400 11 194 0.0 1.6 0.00 0.00 0.00 35 1016.0
20260504021359 11 265 4.8 4.8 0.00 0.00 0.00 36 1016.1
20260504020359 12 210 1.6 3.2 0.00 0.00 0.00 29 1015.9
20260504015357 12 219 3.2 4.8 0.00 0.00 0.00 33 1015.9
20260504014355 13 251 3.2 3.2 0.00 0.00 0.00 32 1015.6
20260504013350 15 215 1.6 1.6 0.00 0.00 0.00 27 1015.7
20260504012350 15 340 0.0 0.0 0.00 0.00 0.00 27 1015.9
20260504011350 15 228 3.2 4.8 0.00 0.00 0.00 25 1015.7
20260504010348 16 297 4.8 8.0 0.00 0.00 0.00 22 1015.5
20260504005347 16 283 9.7 11.3 0.00 0.00 0.00 22 1015.6
20260504004343 16 241 11.3 14.5 0.00 0.00 0.00 22 1015.6
20260504003341 16 267 11.3 12.9 0.00 0.00 0.00 22 1015.6
20260504002340 16 304 6.4 8.0 0.00 0.00 0.00 22 1015.7
20260504001340 16 326 11.3 12.9 0.00 0.00 0.00 23 1015.6
20260504000340 16 303 11.3 14.5 0.00 0.00 0.00 23 1015.6
20260503235335 17 256 12.9 14.5 0.00 0.00 0.00 24 1016.1
20260503234330 16 260 9.7 14.5 0.00 0.00 0.00 26 1015.9
20260503233329 16 274 9.7 14.5 0.00 0.00 0.00 26 1016.0
20260503232329 17 264 6.4 9.7 0.00 0.00 0.00 22 1015.7
20260503231329 17 313 4.8 4.8 0.00 0.00 0.00 19 1016.0
20260503230328 17 275 8.0 11.3 0.00 0.00 0.00 20 1015.7
20260503225328 17 277 11.3 12.9 0.00 0.00 0.00 26 1015.7
20260503224327 17 338 4.8 4.8 0.00 0.00 0.00 24 1015.7
20260503223322 17 261 8.0 9.7 0.00 0.00 0.00 23 1016.1
20260503222322 17 303 8.0 8.0 0.00 0.00 0.00 22 1016.2
20260503221319 17 320 8.0 9.7 0.00 0.00 0.00 24 1016.2
20260503220317 18 352 4.8 9.7 0.00 0.00 0.00 21 1016.2
20260503215317 17 10 1.6 3.2 0.00 0.00 0.00 22 1016.6
20260503214312 17 276 14.5 16.1 0.00 0.00 0.00 21 1016.5
20260503213307 17 4 8.0 9.7 0.00 0.00 0.00 23 1016.7
20260503212301 16 276 11.3 14.5 0.00 0.00 0.00 25 1016.7
20260503211301 17 295 11.3 12.9 0.00 0.00 0.00 26 1016.8
20260503210259 17 227 8.0 14.5 0.00 0.00 0.00 28 1017.3
20260503205256 17 323 6.4 8.0 0.00 0.00 0.00 26 1017.6
20260503204256 16 338 9.7 12.9 0.00 0.00 0.00 28 1018.0
20260503203251 17 275 17.7 24.1 0.00 0.00 0.00 25 1018.1
20260503202246 17 226 3.2 3.2 0.00 0.00 0.00 24 1018.0
20260503201247 17 288 11.3 12.9 0.00 0.00 0.00 23 1017.6
20260503200245 17 342 8.0 11.3 0.00 0.00 0.00 24 1017.7
20260503195245 17 312 3.2 4.8 0.00 0.00 0.00 24 1018.0
20260503194244 16 256 8.0 9.7 0.00 0.00 0.00 26 1018.2
20260503193243 16 321 9.7 11.3 0.00 0.00 0.00 24 1018.3
20260503192239 16 273 9.7 11.3 0.00 0.00 0.00 24 1018.4
20260503191234 16 234 1.6 4.8 0.00 0.00 0.00 24 1018.6